Location: Bonneuil
(46.1010°N, 2.9693°E)
Time: 00:53:57
(UTC+00:00)

ISS - Pass Details

Date: 09 March 2021
Orbit: 418 x 422 km, 51.6° (Epoch: 10 April)

Event Time Altitude Azimuth Distance (km) Brightness Sun altitude
Exits shadow 03:57:42 40° 50° (NE) 631 -2.5 -23.8°
Drops below altitude 10° 04:00:22 10° 93° (E) 1,497 0.0 -23.4°
Sets 04:02:31 0° 99° (E) 2,359 1.1 -23.0°
